Regional Weather Roundup
Issued by NWS Sterling, VA

Home | Current Version | Previous Version | Graphics & Text | Print | Product List | Glossary On
Versions: 1 2 3 4 5 6 7 8 9 10 11 12 13 14 15 16 17 18 19 20 21 22 23 24 25 26 27
000
ASUS41 KLWX 301810
RWRLWX

REGIONAL WEATHER ROUNDUP
NATIONAL WEATHER SERVICE BALTIMORE MD/WASHINGTON DC
200 PM EDT TUE AUG 30 2016

Note: "FAIR" indicates few or no clouds below 12,000 feet
with no significant weather and/or obstructions to visibility.
 TC=TEMPERATURE CELSIUS

 * =Non NWS site. Station does not report precipitation (e.g. rain,
    snow, etc.), thunder, or fog.

DCZ001-MDZ009-015-VAZ040>042-051-053>054-301900-
WASHINGTON METRO

CITY           SKY/WX    TMP DP  RH WIND       PRES   REMARKS
WASHINGTON NAT MOSUNNY   89  63  41 E3        30.10F HX  90
DULLES         PTSUNNY   86  59  39 CALM      30.11F
ANDREWS AFB    SUNNY     87  62  43 VRB6      30.10F
FT BELVOIR     SUNNY     89  62  41 VRB3      30.09F
COLLEGE PARK*  SUNNY     86  61  42 CALM      30.10F
LEESBURG*      MOSUNNY   86  64  48 N5        30.13F
MANASSAS*      SUNNY     88  63  42 MISG      30.11F
GAITHERSBURG*  SUNNY     84  63  48 NE3       30.16F

$$

MDZ006>007-011-014-301900-
BALTIMORE METRO

CITY           SKY/WX    TMP DP  RH WIND       PRES   REMARKS
BWI AIRPORT    MOSUNNY   88  58  36 E5        30.10F
MD SCIENCE CTR   N/A     86  59  39 MISG      30.10F
MARTIN STATE   MOSUNNY   37  70 100 CALM      30.12F
ANNAPOLIS      SUNNY     86  64  47 NE5       30.10F
FORT MEADE*    SUNNY     84  61  45 NE3       30.13F

$$

MDZ012-015-019>023-301900-
MARYLAND EASTERN SHORE

CITY           SKY/WX    TMP DP  RH WIND       PRES   REMARKS
OCEAN CITY     SUNNY     82  74  76 SE7       30.09F
SALISBURY      PTSUNNY   87  68  52 N3        30.08F HX  90
BAY BRIDGE AP* SUNNY     82  66  57 N7        30.11F
CAMBRIDGE*     SUNNY     84  68  58 N5        30.09F
EASTON*        MOSUNNY   88  72  58 NW7       30.13F HX  94

$$

MDZ017>025-301900-
SOUTHERN MARYLAND

CITY           SKY/WX    TMP DP  RH WIND       PRES   REMARKS
PATUXENT RIVER MOSUNNY   86  68  54 VRB5      30.09F
ST INIGOES     SUNNY     87  71  58 E5        30.08F HX  93
LEONARDTOWN*   SUNNY     84  66  54 N5        30.11F

$$

MDZ003>005-301900-
NORTH CENTRAL MARYLAND

CITY           SKY/WX    TMP DP  RH WIND       PRES   REMARKS
FREDERICK*     SUNNY     86  64  48 CALM      30.15F
HAGERSTOWN APT MOSUNNY   84  59  42 VRB3      30.13F

$$

MDZ501>502-301900-
WESTERN MARYLAND

CITY           SKY/WX    TMP DP  RH WIND       PRES   REMARKS
OAKLAND*       SUNNY     75  50  41 NW3       30.24F
CUMBERLAND*    SUNNY     88  57  35 S6        30.16F

$$

VAZ025>031-301900-
SHENANDOAH VALLEY

CITY           SKY/WX    TMP DP  RH WIND       PRES   REMARKS
WINCHESTER*    SUNNY     86  61  42 S6        30.13F
FRONT ROYAL*   FAIR      82  66  57 S6        30.12F
LURAY*         FAIR      82  64  54 CALM      30.13F
NEW MARKET*    FAIR     N/A N/A N/A CALM      30.12F
STAUNTON*      MOSUNNY   83  67  58 CALM      30.16F
WAYNESBORO*    FAIR      83  66  55 E5        30.16F

$$

WVZ021-048>050-054>055-301900-
EASTERN WEST VIRGINIA PANHANDLE

CITY           SKY/WX    TMP DP  RH WIND       PRES   REMARKS
MARTINSBURG    SUNNY     86  62  44 VRB5      30.13F
PETERSBURG*    SUNNY     89  63  42 CALM      30.11F HX  90

$$

VAZ036>039-050-301900-
CENTRAL FOOTHILLS

CITY           SKY/WX    TMP DP  RH WIND       PRES   REMARKS
CHARLOTTESVILL MOSUNNY   88  67  49 SW6       30.12F HX  91
CULPEPER*      SUNNY     87  67  52 NW5       30.12F HX  90
ORANGE*        NOT AVBL
GORDONSVILLE*  FAIR      86  70  58 NE3       30.11F HX  90
WARRENTON*     FAIR      90  57  32 W3        30.11F

$$

VAZ055>057-301900-
NORTH AND CENTRAL PIEDMONT

CITY           SKY/WX    TMP DP  RH WIND       PRES   REMARKS
FREDERICKSBRG*   N/A    N/A N/A N/A MISG        N/A
STAFFORD*      MOSUNNY   86  61  42 W3        30.15S

$$

NCZ024-NYZ072-PAZ021-071-VAZ022-071-301900-
OTHER REGIONAL OBSERVATIONS

CITY           SKY/WX    TMP DP  RH WIND       PRES   REMARKS
NEW YORK CITY  CLOUDY    79  61  53 CALM      30.15F
PHILADELPHIA   MOSUNNY   87  60  40 SE7       30.09F
PITTSBURGH     MOSUNNY   85  44  23 NE7       30.15F
ROANOKE        PTSUNNY   85  68  56 VRB3      30.15F
RICHMOND       MOSUNNY   92  64  39 NW6       30.08F HX  93
RALEIGH        MOSUNNY   90  66  45 VRB5      30.09F HX  92

$$

ANZ530>537-301900-
MARINE OBSERVATIONS

STATION/POSITION TIME  TEMP    WIND        PRES
                       AIR SEA DIR/SP/G
                 (UTC) (F)     (DEG/KT/KT) (MB)
THOMAS PT LIGHT  1800   78 83   30/  8/  9 1020.8F
BALT KEY BRIDGE  1748   84     190/  1/  2 1019.6F
COVE POINT       1748   79      10/  5/  9 1020.0F
LEWISETTA        1748   81 84   90/  5/  6 1018.7F
SOLOMONS ISLAND  1748   82 85   90/  5/  7   N/A
PINEY POINT      1748          210/  3/  3   N/A

$$





USA.gov is the U.S. government's official web portal to all federal, state and local government web resources and services.